TimeMDT,TemperatureF,Dew PointF,Humidity,Sea Level PressureIn,VisibilityMPH,Wind Direction,Wind SpeedMPH,Gust SpeedMPH,PrecipitationIn,Events,Conditions,WindDirDegrees,DateUTC
12:55 AM,28.0,21.9,78,29.97,10.0,Calm,Calm,-,N/A,,Scattered Clouds,0,2013-03-18 06:55:00
1:55 AM,27.0,21.9,81,29.98,10.0,Calm,Calm,-,N/A,,Overcast,0,2013-03-18 07:55:00
2:55 AM,30.0,24.1,79,29.96,10.0,SSW,10.4,-,N/A,,Overcast,210,2013-03-18 08:55:00
3:55 AM,28.0,25.0,88,29.95,10.0,South,5.8,-,0.00,,Overcast,180,2013-03-18 09:55:00
4:55 AM,30.0,23.0,75,29.93,10.0,SSW,8.1,-,N/A,,Overcast,200,2013-03-18 10:55:00
5:55 AM,27.0,21.0,78,29.93,10.0,SSW,9.2,-,0.00,,Mostly Cloudy,200,2013-03-18 11:55:00
6:55 AM,27.0,19.0,72,29.94,10.0,South,6.9,-,N/A,,Partly Cloudy,190,2013-03-18 12:55:00
7:55 AM,26.1,19.0,75,29.96,10.0,South,6.9,-,N/A,,Clear,180,2013-03-18 13:55:00
8:55 AM,28.9,21.0,72,29.97,10.0,SW,3.5,-,N/A,,Overcast,220,2013-03-18 14:55:00
9:55 AM,30.9,21.0,67,29.98,10.0,SSW,4.6,-,N/A,,Overcast,200,2013-03-18 15:55:00
10:55 AM,33.1,19.0,56,29.98,10.0,SSE,5.8,-,0.00,Snow,Light Snow,160,2013-03-18 16:55:00
11:55 AM,35.1,19.9,54,29.96,10.0,SW,8.1,-,0.00,,Overcast,230,2013-03-18 17:55:00
12:55 PM,36.0,21.9,57,29.96,9.0,NNW,3.5,-,0.00,Snow,Light Snow,330,2013-03-18 18:55:00
1:55 PM,35.1,24.1,64,29.96,9.0,Variable,4.6,-,0.00,Snow,Light Snow,0,2013-03-18 19:55:00
2:24 PM,33.8,24.8,70,29.88,2.5,NW,3.5,-,0.01,Snow,Light Snow,310,2013-03-18 20:24:00
2:45 PM,33.8,26.6,75,29.88,4.0,Variable,3.5,-,0.01,Snow,Light Snow,0,2013-03-18 20:45:00
2:55 PM,35.1,27.0,72,29.95,10.0,Variable,3.5,-,0.01,,Mostly Cloudy,0,2013-03-18 20:55:00
3:55 PM,37.9,21.9,53,29.94,10.0,SW,13.8,20.7,N/A,,Mostly Cloudy,230,2013-03-18 21:55:00
4:55 PM,42.1,19.9,41,29.93,10.0,WSW,15.0,19.6,N/A,,Mostly Cloudy,250,2013-03-18 22:55:00
5:55 PM,37.0,17.1,44,29.95,10.0,WNW,10.4,20.7,N/A,,Scattered Clouds,290,2013-03-18 23:55:00
6:55 PM,37.0,17.1,44,29.97,10.0,WNW,5.8,-,N/A,,Mostly Cloudy,290,2013-03-19 00:55:00
7:55 PM,32.0,19.0,59,29.99,10.0,SW,3.5,-,N/A,,Clear,230,2013-03-19 01:55:00
8:55 PM,33.1,17.1,52,30.01,10.0,West,3.5,-,N/A,,Partly Cloudy,260,2013-03-19 02:55:00
9:55 PM,32.0,19.0,59,30.03,10.0,WSW,8.1,-,N/A,,Mostly Cloudy,240,2013-03-19 03:55:00
10:55 PM,32.0,21.0,64,30.06,10.0,WNW,4.6,-,N/A,,Overcast,300,2013-03-19 04:55:00
11:55 PM,28.9,24.1,82,30.09,10.0,Calm,Calm,-,0.00,,Partly Cloudy,0,2013-03-19 05:55:00